Ephrata, WA
on Sunday, January 6, 2013

Sunday
Previous Day Next Day
Daily Summary
 ActualAverageRecord
Temperature
Mean Temperature °F 27°F  
Max Temperature 29°F 33°F 52°F (2009)
Min Temperature 27°F 21°F -15°F (1982)
Degree Days
Heating Degree Days 37 38  
Month to date heating degree days 233 229  
Since 1 July heating degree days 2488 2815  
Cooling Degree Days 0 0  
Month to date cooling degree days 0 0  
Year to date cooling degree days 0 0  
Moisture
Dew Point 26°F   
Average Humidity 93    
Maximum Humidity 100    
Minimum Humidity 85    
Precipitation
Precipitation T in 0.03 in 0.18 in (2007)
Month to date precipitation 0.02 0.20  
Year to date precipitation 0.02 0.20  
Wind
Wind Speed 2 mph   
Max Wind Speed 8 mph   
Max Gust Speed 9 mph   
Visibility 3 miles   
Events Fog , Snow   

Key: T is trace of precipitation, MM is missing value
Source: NWS Daily Summary
Time(PST)TemperatureDew PointHumidity Pressure Visibility Wind DirectionWind SpeedGust SpeedPrecipitationEvents Conditions
12:53 AM 27.0°F 25.0°F 92% 30.22 in 3.0 miles Calm Calm - N/A   Overcast
1:53 AM 28.0°F 27.0°F 96% 30.21 in 3.0 miles SSE 5.8 mph - N/A   Overcast
2:53 AM 28.0°F 26.1°F 92% 30.22 in 4.0 miles South 3.5 mph - N/A   Overcast
3:53 AM 28.0°F 26.1°F 92% 30.22 in 4.0 miles Calm Calm - N/A   Overcast
4:53 AM 27.0°F 25.0°F 92% 30.21 in 4.0 miles SSE 5.8 mph - N/A   Overcast
5:53 AM 27.0°F 25.0°F 92% 30.20 in 3.0 miles SSE 4.6 mph - N/A   Overcast
6:53 AM 27.0°F 26.1°F 96% 30.20 in 2.5 miles SSE 3.5 mph - N/A   Overcast
7:10 AM 26.6°F 24.8°F 93% 30.16 in 3.0 miles SSE 4.6 mph - N/A   Overcast
7:41 AM 26.6°F 26.6°F 100% 30.15 in 2.5 miles Calm Calm - N/A   Overcast
7:53 AM 27.0°F 25.0°F 92% 30.21 in 2.0 miles Calm Calm - N/A   Overcast
8:02 AM 26.6°F 26.6°F 100% 30.16 in 1.8 miles Calm Calm - N/A   Overcast
8:27 AM 26.6°F 26.6°F 100% 30.17 in 0.5 miles Calm Calm - N/A Fog Light Freezing Fog
8:53 AM 27.0°F 26.1°F 96% 30.23 in 0.2 miles Calm Calm - N/A Fog Light Freezing Fog
9:32 AM 26.6°F 26.6°F 100% 30.20 in 0.5 miles NNE 3.5 mph - N/A Fog Light Freezing Fog
10:10 AM 28.4°F 26.6°F 93% 30.20 in 2.0 miles Calm Calm - N/A   Overcast
10:18 AM 28.4°F 26.6°F 93% 30.20 in 2.5 miles ENE 4.6 mph - N/A   Overcast
10:27 AM 26.6°F 24.8°F 93% 30.20 in 3.0 miles Calm Calm - N/A   Overcast
10:53 AM 27.0°F 25.0°F 92% 30.23 in 4.0 miles Calm Calm - N/A   Overcast
11:53 AM 27.0°F 25.0°F 92% 30.21 in 5.0 miles Calm Calm - N/A   Overcast
12:05 PM 26.6°F 24.8°F 93% 30.15 in 5.0 miles Calm Calm - N/A   Overcast
12:53 PM 28.0°F 25.0°F 88% 30.17 in 6.0 miles Calm Calm - N/A   Overcast
1:53 PM 28.0°F 25.0°F 88% 30.17 in 6.0 miles Calm Calm - N/A   Overcast
2:53 PM 28.0°F 25.0°F 88% 30.17 in 4.0 miles South 5.8 mph - N/A   Overcast
3:20 PM 28.4°F 26.6°F 93% 30.12 in 2.5 miles Calm Calm - N/A   Overcast
3:48 PM 28.4°F 26.6°F 93% 30.11 in 3.0 miles Calm Calm - N/A   Overcast
3:53 PM 28.0°F 26.1°F 92% 30.16 in 3.0 miles Calm Calm - N/A   Overcast
4:20 PM 28.4°F 24.8°F 86% 30.11 in 5.0 miles Calm Calm - N/A   Overcast
4:53 PM 28.0°F 25.0°F 88% 30.16 in 6.0 miles Calm Calm - N/A   Overcast
5:53 PM 28.0°F 26.1°F 92% 30.15 in 6.0 miles Calm Calm - N/A   Overcast
6:53 PM 28.0°F 25.0°F 88% 30.15 in 6.0 miles Calm Calm - N/A   Overcast
7:38 PM 28.4°F 26.6°F 93% 30.09 in 1.8 miles Calm Calm - N/A   Overcast
7:48 PM 28.4°F 26.6°F 93% 30.10 in 0.5 miles East 3.5 mph - N/A Fog Light Freezing Fog
7:53 PM 28.0°F 26.1°F 92% 30.15 in 0.5 miles East 3.5 mph - N/A Fog Light Freezing Fog
8:11 PM 28.4°F 26.6°F 93% 30.10 in 0.2 miles ESE 4.6 mph - N/A Fog Light Freezing Fog
8:53 PM 28.0°F 27.0°F 96% 30.14 in 0.2 miles ESE 3.5 mph - N/A Fog Light Freezing Fog
9:53 PM 27.0°F 27.0°F 100% 30.14 in 0.2 miles East 3.5 mph - N/A Fog Light Freezing Fog
10:10 PM 26.6°F 26.6°F 100% 30.09 in 0.5 miles ENE 4.6 mph - 0.00 in Fog Light Freezing Fog
10:36 PM 26.6°F 26.6°F 100% 30.07 in 1.2 miles ENE 4.6 mph - 0.00 in   Overcast
10:53 PM 27.0°F 26.1°F 96% 30.12 in 2.0 miles NNE 3.5 mph - 0.00 in Snow Light Snow
11:53 PM 27.0°F 25.0°F 92% 30.10 in 4.0 miles NNE 3.5 mph - 0.00 in Snow Light Snow
Moon Phase
Jan. 06 Jan. 11 Jan. 18 Jan. 26 Feb. 03
Sunrise:07:44 AM (PST) Moon Rise:01:55 AM (PST)1/6
Sunset:04:24 PM (PST) Moon Set:12:02 PM (PST)1/6

Copyright © 2014 The Weather Underground, Inc.